This demonstration page uses our WeatherBlox Daily Observations layout. Learn more.

Left ArrowRight Arrow

31.31129, -92.44514

Hourly Observations for July 30, 2022

Temp ( °F °C ) Dew Point ( °F °C ) Humidity (%) Winds ( mph kmh ) Pressure ( in mb ) Visibility ( mi km ) Precip ( " mm )
12:53 am 00:53 Clear 77 25 74 23.3 90 90 SSE 6 9 30.04 1017 10 16 0.00 0.00
1:53 am 01:53 Clear 77 25 74 23.3 90 90 Calm 30.05 1018 10 16 0.00 0.00
2:53 am 02:53 Clear 77 25 73 22.8 88 88 Calm 30.07 1018 10 16 0.00 0.00
3:53 am 03:53 Clear 77 25 74 23.3 90 90 Calm 30.07 1018 10 16 0.00 0.00
4:53 am 04:53 Clear 76 24.4 73 22.8 91 91 ESE 3 6 30.08 1019 10 16 0.00 0.00
5:53 am 05:53 Clear 76 24.4 74 23.3 94 94 Calm 30.08 1019 9 14 0.00 0.00
6:53 am 06:53 Sunny 76 24.4 74 23.3 94 94 Calm 30.10 1019 8 13 0.00 0.00
7:53 am 07:53 Sunny 78 25.6 75 23.9 90 90 SSE 7 11 30.11 1020 9 14 0.00 0.00
8:53 am 08:53 Sunny 80 26.7 76 24.4 87 87 SSE 6 9 30.11 1020 10 16 0.00 0.00
9:53 am 09:53 Sunny 84 28.9 76 24.4 77 77 Calm 30.12 1020 10 16 0.00 0.00
10:53 am 10:53 Sunny 88 31.1 76 24.4 68 68 WSW 7 11 30.12 1020 9 14 0.00 0.00
11:49 am 11:49 Partly Cloudy with Nearby Thunderstorms 90 32 73 23 59 59 SW 7 11 30.10 1019 10 16 0.00 0.00
11:53 am 11:53 Sunny with Nearby Thunderstorms 91 32.8 74 23.3 57 57 SSW 6 9 30.11 1020 10 16 0.00 0.00
12:05 pm 12:05 Partly Cloudy with Thunderstorms 89 31.7 74 23.3 61 61 S 16 26 30.10 1019 10 16 0.00 0.00
12:40 pm 12:40 Cloudy with Nearby Thunderstorms 80 26.7 74 23.3 82 82 S 15 24 30.14 1021 6 10 0.01 0.25
12:51 pm 12:51 Cloudy with Strong Thunderstorms 79 26 75 24 89 89 S 9 15 30.13 1020 3 4 0.05 1.27
12:53 pm 12:53 Cloudy with Strong Thunderstorms 79 26.1 75 23.9 88 88 S 12 19 30.14 1021 3 4 0.05 1.27
1:05 pm 13:05 Cloudy with Thunderstorms 78 25.6 74 23.3 87 87 SW 12 19 30.12 1020 5 8 0.02 0.51
1:21 pm 13:21 Cloudy with Nearby Thunderstorms 79 26.1 74 23.3 85 85 VRB 5 7 30.13 1020 9 14 0.02 0.51
1:53 pm 13:53 Mostly Cloudy with Rain 79 26.1 74 23.3 85 85 WNW 3 6 30.12 1020 5 8 0.03 0.76
2:53 pm 14:53 Mostly Cloudy with Light Rain 78 25.6 74 23.3 87 87 S 9 15 30.10 1019 9 14 0.03 0.76
3:53 pm 15:53 Partly Cloudy with Light Rain 83 28.3 75 23.9 77 77 S 6 9 30.08 1019 10 16 0.00 0.00
4:53 pm 16:53 Sunny 82 27.8 76 24.4 82 82 SSW 7 11 30.07 1018 10 16 0.00 0.00
5:53 pm 17:53 Sunny 85 29.4 76 24.4 75 75 S 6 9 30.07 1018 10 16 0.00 0.00
6:53 pm 18:53 Sunny 84 28.9 75 23.9 74 74 SE 9 15 30.06 1018 10 16 0.00 0.00
7:53 pm 19:53 Sunny 83 28.3 74 23.3 74 74 SE 7 11 30.09 1019 10 16 0.00 0.00
8:53 pm 20:53 Clear 81 27.2 75 23.9 82 82 SE 9 15 30.11 1020 10 16 0.00 0.00
9:53 pm 21:53 Mostly Clear 80 26.7 75 23.9 85 85 SE 7 11 30.13 1020 10 16 0.00 0.00
10:53 pm 22:53 Clear 79 26.1 74 23.3 85 85 SE 7 11 30.12 1020 10 16 0.00 0.00
11:53 pm 23:53 Clear 79 26.1 73 22.8 82 82 ESE 5 7 30.12 1020 10 16 0.00 0.00

Powered by AerisWeather